Location: ???????
(55.4362°N, 38.1183°E)
Time: 01:10:56
(UTC+00:00)

ATLAS 3B R/B - Visible Passes

Search period start: 24 October 2021 00:00
Search period end: 03 November 2021 00:00
Orbit: 994 x 1201 km, 63.8° (Epoch: 22 October)

Date Brightness Start Highest point End Pass type
(mag) Time Alt. Az. Time Alt. Az. Time Alt. Az.
24 Oct 3.2 15:57:57 10° W 16:04:32 54° NNW 16:10:15 16° NE visible
24 Oct 3.5 17:49:58 10° WNW 17:56:30 43° N 17:57:29 41° NNE visible
24 Oct 4.2 19:41:21 10° NW 19:44:43 31° NW 19:44:43 31° NW visible
25 Oct 3.0 15:10:22 10° WSW 15:17:00 66° NNW 15:24:01 10° NE visible
25 Oct 3.5 17:02:19 10° WNW 17:08:47 43° N 17:11:32 31° NE visible
25 Oct 3.7 18:53:58 10° NW 18:58:46 42° NNW 18:58:46 42° NNW visible
25 Oct 5.0 20:44:52 10° NW 20:46:00 16° NW 20:46:00 16° NW visible
26 Oct 3.5 16:14:36 10° W 16:21:06 46° NNW 16:25:36 21° NE visible
26 Oct 3.4 18:06:29 10° WNW 18:12:50 47° N 18:12:50 47° N visible
26 Oct 4.5 19:57:32 10° NW 20:00:03 24° NW 20:00:03 24° NW visible
27 Oct 3.3 15:26:54 10° W 15:33:27 52° NNW 15:39:40 13° NE visible
27 Oct 3.4 17:18:55 10° WNW 17:25:27 43° N 17:26:54 39° NE visible
27 Oct 4.0 19:10:12 10° NW 19:14:08 36° NW 19:14:08 36° NW visible
27 Oct 5.2 21:01:05 10° NW 21:01:22 11° NW 21:01:22 11° NW visible
28 Oct 3.1 14:39:16 10° WSW 14:45:54 62° NNW 14:52:54 10° NE visible
28 Oct 3.5 16:31:16 10° WNW 16:37:45 43° N 16:40:58 28° NE visible
28 Oct 3.5 18:22:50 10° NW 18:28:12 48° NNW 18:28:12 48° NNW visible
28 Oct 4.8 20:13:43 10° NW 20:15:27 19° NW 20:15:27 19° NW visible
29 Oct 3.5 15:43:34 10° W 15:50:03 45° N 15:55:03 18° NE visible
29 Oct 3.2 17:35:23 10° WNW 17:42:06 48° NNE 17:42:17 48° NNE visible
29 Oct 4.3 19:26:23 10° NW 19:29:32 30° NW 19:29:32 30° NW visible
30 Oct 3.3 14:55:52 10° W 15:02:24 50° NNW 15:09:09 11° ENE visible
30 Oct 3.4 16:47:51 10° WNW 16:54:26 44° N 16:56:23 37° NE visible
30 Oct 3.7 18:39:04 10° NW 18:43:37 44° NW 18:43:37 44° NW visible
30 Oct 5.1 20:29:57 10° NW 20:30:52 14° WNW 20:30:52 14° WNW visible
31 Oct 3.5 16:00:13 10° WNW 16:06:43 43° N 16:10:29 25° ENE visible
31 Oct 3.2 17:51:42 10° NW 17:57:44 55° N 17:57:44 55° N visible
31 Oct 4.6 19:42:34 10° NW 19:44:58 23° WNW 19:44:58 23° WNW visible
01 Nov 3.4 15:12:32 10° W 15:19:01 44° N 15:24:36 15° ENE visible
01 Nov 3.1 17:04:16 10° WNW 17:11:03 50° NNE 17:11:51 48° NE visible
01 Nov 4.0 18:55:14 10° NW 18:59:05 36° NW 18:59:05 36° NW visible
02 Nov 3.4 14:24:49 10° W 14:31:20 48° NNW 14:38:12 10° ENE visible
02 Nov 3.3 16:16:46 10° WNW 16:23:23 45° N 16:25:59 33° ENE visible
02 Nov 3.3 18:07:55 10° NW 18:13:13 54° NW 18:13:13 54° NW visible
02 Nov 4.9 19:58:52 10° NW 20:00:28 17° WNW 20:00:28 17° WNW visible
